Teesside, United Kingdom

8:51 PM BST on April 27, 2017 (GMT +0100)
Teesside

Weather History for EGNV - December, 2012

Change the Weather History Date:

Monday, December 17, 2012

  Actual Average Record
Temperature  
Mean Temperature 42 °F -  
Max Temperature 44 °F 43 °F 57 °F (2015)
Min Temperature 39 °F 34 °F 21 °F (2010)
Degree Days  
Heating Degree Days 24    
Moisture  
Dew Point 39 °F    
Average Humidity 93    
Maximum Humidity 100    
Minimum Humidity 87    
Precipitation  
Precipitation 0.00 in - - ()
Sea Level Pressure  
Sea Level Pressure 29.45 in    
Wind  
Wind Speed 6 mph ()    
Max Wind Speed 10 mph    
Max Gust Speed -    
Visibility 5.0 miles    
Events Rain    
Averages and records for this station are not official NWS values.
T = Trace of Precipitation, MM = Missing Value Source: Averaged Metar Reports

Daily Weather History Graph

Daily Weather History Graph

Search for Another Location

Airport or City:

Trip Planner

Search our weather history database for the weather conditions in past years. The results will help you decide how hot, cold, wet, or windy it might be!

Date:

Astronomy

Dec. 17, 2012 Rise Set
Actual Time 8:23 AM GMT 3:40 PM GMT
Civil Twilight 7:38 AM GMT 4:25 PM GMT
Nautical Twilight 6:51 AM GMT 5:12 PM GMT
Astronomical Twilight 6:07 AM GMT 5:56 PM GMT
Moon 10:44 AM GMT (12/17) 9:29 PM GMT (12/17)
Length of Visible Light 8h 46m
Length of Day
7h 17m
Waxing Crescent, 23% of the Moon is Illuminated
Dec 17
Waxing Crescent
Dec 20
First Quarter
Dec 28
Full
Jan 5
Last Quarter
Jan 11
New

Hourly Weather History & Observations

Time (GMT) Temp. Windchill Dew Point Humidity Pressure Visibility Wind Dir Wind Speed Gust Speed Precip Events Conditions
5:50 AM 39.2 °F 35.0 °F 37.4 °F 93% 29.36 in 4.3 mi South 5.8 mph - N/A   Scattered Clouds
6:20 AM 39.2 °F 37.0 °F 39.2 °F 100% 29.36 in 4.3 mi SSW 3.5 mph - N/A   Scattered Clouds
6:50 AM 39.2 °F 35.0 °F 37.4 °F 93% 29.36 in 4.3 mi SSW 5.8 mph - N/A   Scattered Clouds
7:20 AM 39.2 °F 34.2 °F 39.2 °F 100% 29.36 in 4.3 mi South 6.9 mph - N/A   Scattered Clouds
7:50 AM 41.0 °F 36.4 °F 39.2 °F 93% 29.39 in 4.3 mi South 6.9 mph - N/A Rain Light Rain
8:20 AM 41.0 °F 36.4 °F 39.2 °F 93% 29.39 in 2.5 mi South 6.9 mph - N/A Rain Light Rain
8:50 AM 41.0 °F 35.8 °F 39.2 °F 93% 29.39 in 3.1 mi South 8.1 mph - N/A Rain Light Rain
9:20 AM 41.0 °F 35.8 °F 39.2 °F 93% 29.39 in 3.7 mi South 8.1 mph - N/A   Light Drizzle
9:50 AM 41.0 °F 35.8 °F 39.2 °F 93% 29.42 in 3.7 mi South 8.1 mph - N/A Rain Light Rain
10:20 AM 41.0 °F 35.8 °F 39.2 °F 93% 29.42 in 5.0 mi South 8.1 mph - N/A   Mostly Cloudy
10:50 AM 41.0 °F 35.8 °F 39.2 °F 93% 29.42 in 5.0 mi South 8.1 mph - N/A   Scattered Clouds
11:20 AM 42.8 °F 38.0 °F 39.2 °F 87% 29.42 in 5.6 mi South 8.1 mph - N/A   Scattered Clouds
11:50 AM 41.0 °F 34.7 °F 39.2 °F 93% 29.42 in 5.0 mi South 10.4 mph - N/A Rain Light Rain Showers
12:20 PM 41.0 °F 35.2 °F 39.2 °F 93% 29.42 in 5.0 mi South 9.2 mph - N/A Rain Light Rain Showers
12:50 PM 42.8 °F 37.5 °F 41.0 °F 93% 29.42 in 4.3 mi South 9.2 mph - N/A   Scattered Clouds
1:20 PM 44.6 °F 39.7 °F 41.0 °F 87% 29.42 in 5.0 mi South 9.2 mph - N/A   Scattered Clouds
1:50 PM 44.6 °F 39.7 °F 41.0 °F 87% 29.42 in 5.6 mi South 9.2 mph - N/A   Scattered Clouds
2:20 PM 42.8 °F 37.5 °F 41.0 °F 93% 29.42 in 5.6 mi South 9.2 mph - N/A   Scattered Clouds
2:50 PM 42.8 °F 38.0 °F 41.0 °F 93% 29.44 in 6.2 mi South 8.1 mph - N/A   Scattered Clouds
3:20 PM 42.8 °F 38.0 °F 41.0 °F 93% 29.44 in 6.2 mi South 8.1 mph - N/A   Scattered Clouds
3:50 PM 42.8 °F 40.1 °F 39.2 °F 87% 29.44 in 6.2 mi SW 4.6 mph - N/A   Mostly Cloudy
4:20 PM 41.0 °F 37.1 °F 39.2 °F 93% 29.47 in 6.2 mi South 5.8 mph - N/A   Scattered Clouds
4:50 PM 42.8 °F 40.1 °F 39.2 °F 87% 29.47 in 6.2 mi SSW 4.6 mph - N/A   Scattered Clouds
5:20 PM 41.0 °F 39.0 °F 39.2 °F 93% 29.47 in 6.2 mi WSW 3.5 mph - N/A   Scattered Clouds
5:50 PM 41.0 °F - 39.2 °F 93% 29.50 in 6.2 mi WNW 2.3 mph - N/A   Scattered Clouds
6:20 PM 41.0 °F 39.0 °F 39.2 °F 93% 29.50 in 6.2 mi West 3.5 mph - N/A   Scattered Clouds
6:50 PM 41.0 °F 39.0 °F 39.2 °F 93% 29.50 in 6.2 mi North 3.5 mph - N/A   Scattered Clouds
7:20 PM 41.0 °F 38.0 °F 39.2 °F 93% 29.53 in 6.2 mi NNW 4.6 mph - N/A   Light Drizzle
7:50 PM 41.0 °F 36.4 °F 39.2 °F 93% 29.53 in 5.0 mi NNW 6.9 mph - N/A   Mostly Cloudy
8:20 PM 41.0 °F 34.7 °F 39.2 °F 93% 29.56 in 4.3 mi NNW 10.4 mph - N/A   Mostly Cloudy
8:50 PM 41.0 °F 35.8 °F 39.2 °F 93% 29.56 in 5.0 mi NNW 8.1 mph - N/A   Mostly Cloudy
9:20 PM 41.0 °F 35.2 °F 39.2 °F 93% 29.59 in 4.3 mi NNW 9.2 mph - N/A   Mostly Cloudy
9:50 PM 41.0 °F 35.8 °F 39.2 °F 93% 29.59 in 4.3 mi NW 8.1 mph - N/A   Light Drizzle